NOAA 16 DEB, 41233

Orbit data source: Space-Track

NOAA 16 DEB, 41233 is space debris in SSO originally from a launch on Thu, 21 Sep 2000 UTC launched from the Air Force Western Test Range (AFWTR). Debris objects in space refer to the collection of defunct objects orbiting the Earth. Examples of debris include non-operational satellites, rocket bodies, and fragments generated from explosions, collisions, or faulty payload assembly.

Loading next visibility...
Identifier
41233, 2000-055EN
Orbit
SSO
Country
Flag of USUS
Related business
Manufacturer
Unknown
Mission
Spacecraft
Bus & Motor
Unknown
Mass
Unknown
Launch date (UTC)
2000-09-21 (26 years ago)
Launch vehicle
Unknown
Launch site
Air Force Western Test Range (AFWTR)
Object type
Payload
Rocket body
Debris
Shape & HBR
Unknown shape, 0.1 m
Radar Cross Section
Medium (>0.1 m² and <1 m²)

Expand to show TLE details & history
Last TLE update: 3 days ago

TLE from 3 days ago
0 NOAA 16 DEB
1 41233U 00055EN  26234.34138730  .00001990  00000-0  92094-3 0  9995
2 41233  98.6891 271.3945 0035761 309.5548  50.2471 14.21620653550552
Epoch: 2026-08-22T08:11Z
TLE epoch observation values (Epoch: 2026-08-22T08:11:35.862Z)
Latitude
-0.00009°
Longitude
177.8419°
Altitude
806.385 km
Speed
7.459 km/s
True Right ascension
18h 05m 34s
True Declination
0° 00' 00"
Sunlit
Object was in full shadow at epoch
Visualization orbit readout
Latitude
Unknown
Longitude
Unknown
Altitude
Unknown
Speed
Unknown
Apparent Right ascension
Unknown
Apparent Declination
Unknown
Sunlit
N/A
Visualization observer readout
Local Sidereal Time
13:00:55
Azimuth
Unknown
Elevation
Unknown
Doppler factor
Unknown
Orbital elements
Apogee altitude
842.763 km
Perigee altitude
791.302 km
Semi-major axis
7,195.169 km
Eccentricity
0.00358
Inclination
98.6891°
RAAN
271.3945°
Arg. of periapsis
309.5548°
True anomaly
50.56305°
Mean anomaly
50.2471°
Eccentric anomaly
50.40499°
Mean motion
3.55616 °/min
Orbital period
101.23 mins
BSTAR
0.00092094
Loading maneuver chart data...
Computing Atmospheric mass density...
Loading historical data...
Loading historical data...
Loading historical data...
Loading historical data...
Loading historical data...
Loading historical data...
Loading historical data...

Documentation

Showing up to 5 results
|